Regional Weather Roundup
Issued by NWS Albany, NY

Home | Current Version | Previous Version | Text Only | Print | Product List | Glossary On
Versions: 1 2 3 4 5 6 7 8 9 10 11 12 13 14 15 16 17 18 19 20 21 22 23 24 25 26 27 28 29 30 31 32 33 34 35 36 37 38 39 40 41 42 43 44 45 46 47 48 49 50
000
ASUS41 KALY 182210
RWRALY

NEW YORK STATE HOURLY WEATHER ROUNDUP
NATIONAL WEATHER SERVICE ALBANY NY
500 PM EST THU DEC 18 2014

NOTE: "FAIR" INDICATES FEW OR NO CLOUDS BELOW 12,000 FEET WITH NO
SIGNIFICANT WEATHER AND/OR NO OBSTRUCTIONS TO VISIBILITY.

NYZ032-033-038>043-046>054-057>066-NYZ062>081-182300-
EAST


CITY           SKY/WX    TMP DP  RH WIND       PRES   REMARKS
ALBANY         CLOUDY    35  26  69 W17G23    29.94R WCI  25
GLENS FALLS    CLOUDY    36  25  64 NW6       29.90R WCI  31
POUGHKEEPSIE   CLOUDY    39  25  57 W9        29.95R WCI  33
NEWBURGH       CLOUDY    36  27  69 MISG      29.96R
MONTGOMERY     CLOUDY    37  27  67 NW8       29.96R WCI  31
WHITE PLAINS   MOCLDY    36  25  64 NW15      29.93R WCI  27
ISLIP          MOCLDY    39  26  59 NW12      29.93R WCI  32
NEW YORK CITY  MOCLDY    40  26  57 NW22      29.96S WCI  30
CENTRAL PARK   CLOUDY    40  24  53 NW10G23   29.99R WCI  33
$$

NYZ005>009-017-018-044>046-055-056-182300-
CENTRAL


CITY           SKY/WX    TMP DP  RH WIND       PRES   REMARKS
FULTON         CLOUDY    33  27  78 NW10      30.02R WCI  25
SYRACUSE       FLURRIES  31  28  89 W15       30.02S WCI  20
ROME           CLOUDY    30  27  88 W13       30.00S WCI  20
ELMIRA         CLOUDY    34  26  72 W14       30.02R WCI  25
BINGHAMTON     CLOUDY    29  28  96 W9        29.96S FOG     WCI  20
MONTICELLO     CLOUDY    30  27  86 W15G23    29.94F WCI  19
$$

NYZ026>034-041>043-182300-
NORTH


CITY           SKY/WX    TMP DP  RH WIND       PRES   REMARKS
WATERTOWN      CLOUDY    31  21  66 W9        30.02R WCI  23
FORT DRUM      NOT AVBL
MASSENA        CLOUDY    28  23  81 W13       29.99R WCI  17
SARANAC LAKE   CLOUDY    24  32 100 W8        29.86R WCI  15
PLATTSBURGH    CLOUDY    32  25  75 W7        29.91R WCI  26
$$

NYZ001>004-010>016-019>021-182300-
WEST


CITY           SKY/WX    TMP DP  RH WIND       PRES   REMARKS
NIAGARA FALLS  FRZ DRZL  30  27  88 W12       30.07S FOG     WCI  20
BUFFALO        CLOUDY    31  26  82 W10       30.07R WCI  22
DUNKIRK        CLOUDY    33  26  75 W10G20    30.10R WCI  25
JAMESTOWN      CLOUDY    28  25  86 W8        30.05R WCI  20
WELLSVILLE     CLOUDY    28  25  88 W9        30.00R WCI  19
ROCHESTER      FRZ DRZL  32  28  85 W10       30.05S FOG     WCI  24
PENN YAN       CLOUDY    32  26  78 W9        30.02R WCI  24
$$

             KEY
       WCI = WIND CHILL INDEX
       VSB = VISIBILITY
       HX  = HEAT INDEX
$$



USA.gov is the U.S. government's official web portal to all federal, state and local government web resources and services.